#timestamp,LO_Frequency,Hit,Temp,Hum 
1478260815.5,286046926.8,N,0.0,0.0
1478260835.3,286046925.0,N,0.0,0.0
1478260855.2,286046927.1,N,0.0,0.0
1478260875.9,286046926.2,N,0.0,0.0
1478260895.7,286046929.1,N,0.0,0.0
1478260915.6,286046926.7,N,0.0,0.0
1478260935.4,286046928.7,N,0.0,0.0
1478260955.2,286046929.2,N,0.0,0.0
1478260975.1,286046926.8,N,0.0,0.0
1478260976.0,286046926.8,N,0.0,0.0
1478260995.8,286046926.1,N,0.0,0.0
1478261015.6,286046928.9,N,0.0,0.0
1478261035.5,286046926.8,N,0.0,0.0
1478261055.3,286046927.6,N,0.0,0.0
1478261075.1,286046923.1,N,0.0,0.0
1478261095.9,286046928.2,N,0.0,0.0
1478261115.7,286046926.2,N,0.0,0.0
1478261135.6,286046927.2,N,0.0,0.0
1478261155.4,286046924.6,N,0.0,0.0
1478261175.2,286046928.6,N,0.0,0.0
1478261195.1,286046927.6,N,0.0,0.0
1478261196.0,286046927.6,N,0.0,0.0
1478261215.8,286046927.1,N,0.0,0.0
1478261235.6,286046925.3,N,0.0,0.0
1478261255.5,286046925.2,N,0.0,0.0
1478261275.3,286046925.1,N,0.0,0.0
1478261295.1,286046924.9,N,0.0,0.0
1478261315.9,286046925.1,N,0.0,0.0
1478261335.7,286046926.7,N,0.0,0.0
1478261355.5,286046928.0,N,0.0,0.0
1478261375.4,286046928.1,N,0.0,0.0
1478261395.2,286046924.9,N,0.0,0.0
1478261415.0,286046924.7,N,0.0,0.0
1478261416.0,286046924.7,N,0.0,0.0
1478261435.8,286046927.6,N,0.0,0.0
1478261455.6,286046924.1,N,0.0,0.0
1478261475.5,286046924.1,N,0.0,0.0
1478261495.3,286046928.8,N,0.0,0.0
1478261515.1,286046927.1,N,0.0,0.0
1478261535.9,286046925.7,N,0.0,0.0
1478261555.7,286046925.0,N,0.0,0.0
1478261575.5,286046922.9,N,0.0,0.0
1478261595.4,286046923.4,N,0.0,0.0
1478261615.2,286046925.4,N,0.0,0.0
1478261635.0,286046925.1,N,0.0,0.0
1478261635.9,286046925.1,N,0.0,0.0
1478261655.8,286046924.9,N,0.0,0.0
1478261675.6,286046927.6,N,0.0,0.0
1478261695.4,286046927.5,N,0.0,0.0
1478261715.3,286046927.2,N,0.0,0.0
1478261735.1,286046927.6,N,0.0,0.0
1478261755.9,286046927.6,N,0.0,0.0
1478261775.7,286046924.9,N,0.0,0.0
1478261795.5,286046929.1,N,0.0,0.0
1478261815.4,286046926.9,N,0.0,0.0
1478261835.2,286046924.7,N,0.0,0.0
1478261855.0,286046927.3,N,0.0,0.0
1478261855.9,286046927.3,N,0.0,0.0
1478261875.8,286046923.4,N,0.0,0.0
1478261895.6,286046924.5,N,0.0,0.0
1478261915.4,286046924.8,N,0.0,0.0
1478261935.3,286046925.0,N,0.0,0.0
1478261955.1,286046927.3,N,0.0,0.0
1478261975.8,286046926.5,N,0.0,0.0
1478261995.7,286046926.4,N,0.0,0.0
1478262015.5,286046925.3,N,0.0,0.0
1478262035.4,286046923.5,N,0.0,0.0
1478262055.2,286046926.7,N,0.0,0.0
1478262075.0,286046926.7,N,0.0,0.0
1478262075.9,286046926.7,N,0.0,0.0
1478262095.8,286046928.7,N,0.0,0.0
1478262115.6,286046930.7,N,0.0,0.0
1478262135.4,286046930.3,N,0.0,0.0
1478262155.3,286046926.3,N,0.0,0.0
1478262175.1,286046923.2,N,0.0,0.0
1478262176.0,286046923.2,N,0.0,0.0
1478262195.8,286046924.0,N,0.0,0.0
1478262215.7,286046923.7,N,0.0,0.0
1478262235.5,286046925.6,N,0.0,0.0
1478262255.3,286046925.2,N,0.0,0.0
1478262275.2,286046923.8,N,0.0,0.0
1478262295.0,286046923.5,N,0.0,0.0
1478262295.9,286046923.5,N,0.0,0.0
1478262315.8,286046923.0,N,0.0,0.0
1478262335.6,286046923.0,N,0.0,0.0
1478262355.4,286046925.4,N,0.0,0.0
1478262375.3,286046925.9,N,0.0,0.0
1478262395.1,286046925.8,N,0.0,0.0
1478262396.0,286046925.8,N,0.0,0.0
1478262415.8,286046925.5,N,0.0,0.0
1478262435.7,286046925.9,N,0.0,0.0
1478262455.5,286046925.2,N,0.0,0.0
1478262475.3,286046925.1,N,0.0,0.0
1478262495.2,286046929.2,N,0.0,0.0
1478262515.0,286046928.4,N,0.0,0.0
1478262515.9,286046928.4,N,0.0,0.0
1478262535.7,286046930.8,N,0.0,0.0
1478262555.6,286046929.0,N,0.0,0.0
1478262575.4,286046928.4,N,0.0,0.0
1478262595.3,286046926.4,N,0.0,0.0
1478262615.1,286046925.0,N,0.0,0.0
1478262616.0,286046925.0,N,0.0,0.0
1478262635.8,286046923.9,N,0.0,0.0
1478262655.7,286046923.9,N,0.0,0.0
1478262675.5,286046923.6,N,0.0,0.0
1478262695.3,286046925.8,N,0.0,0.0
1478262715.2,286046926.0,N,0.0,0.0
1478262735.9,286046925.4,N,0.0,0.0
1478262755.7,286046924.9,N,0.0,0.0
1478262775.6,286046927.3,N,0.0,0.0
1478262795.4,286046925.0,N,0.0,0.0
1478262815.2,286046927.5,N,0.0,0.0
1478262835.1,286046927.6,N,0.0,0.0
1478262836.0,286046927.6,N,0.0,0.0
1478262855.8,286046925.6,N,0.0,0.0
1478262875.6,286046925.0,N,0.0,0.0
1478262895.5,286046926.6,N,0.0,0.0
1478262915.3,286046926.8,N,0.0,0.0
1478262935.2,286046926.8,N,0.0,0.0
1478262955.9,286046924.8,N,0.0,0.0
1478262975.7,286046927.2,N,0.0,0.0
1478262995.6,286046925.0,N,0.0,0.0
1478263015.4,286046927.0,N,0.0,0.0
1478263035.2,286046926.6,N,0.0,0.0
1478263055.1,286046928.7,N,0.0,0.0
1478263056.0,286046928.7,N,0.0,0.0
1478263075.8,286046935.7,N,0.0,0.0
1478263095.6,286046921.6,N,0.0,0.0
1478263115.5,286046924.1,N,0.0,0.0
1478263135.3,286046924.1,N,0.0,0.0
1478263155.1,286046922.8,N,0.0,0.0
1478263175.9,286046926.8,N,0.0,0.0
1478263195.7,286046928.3,N,0.0,0.0
1478263215.6,286046926.1,N,0.0,0.0
1478263235.4,286046925.4,N,0.0,0.0
1478263255.2,286046923.0,N,0.0,0.0
1478263275.1,286046924.8,N,0.0,0.0
1478263276.0,286046924.8,N,0.0,0.0
1478263295.8,286046924.5,N,0.0,0.0
1478263315.6,286046923.7,N,0.0,0.0
1478263335.5,286046923.4,N,0.0,0.0
1478263355.3,286046925.0,N,0.0,0.0
1478263375.1,286046924.4,N,0.0,0.0
1478263395.9,286046921.7,N,0.0,0.0
1478263415.7,286046922.0,N,0.0,0.0
1478263435.5,286046922.8,N,0.0,0.0
1478263455.4,286046924.8,N,0.0,0.0
1478263475.2,286046923.1,N,0.0,0.0
1478263495.0,286046922.9,N,0.0,0.0
1478263495.9,286046922.9,N,0.0,0.0
1478263515.8,286046925.7,N,0.0,0.0
1478263535.6,286046925.5,N,0.0,0.0
1478263555.5,286046923.3,N,0.0,0.0
1478263575.3,286046925.3,N,0.0,0.0
1478263595.1,286046924.7,N,0.0,0.0
1478263615.9,286046921.3,N,0.0,0.0
1478263635.7,286046922.5,N,0.0,0.0
1478263655.5,286046921.2,N,0.0,0.0
1478263675.4,286046922.2,N,0.0,0.0
1478263695.2,286046919.9,N,0.0,0.0
1478263715.0,286046920.3,N,0.0,0.0
1478263715.9,286046920.3,N,0.0,0.0
1478263735.8,286046920.7,N,0.0,0.0
1478263755.6,286046919.8,N,0.0,0.0
1478263775.4,286046921.0,N,0.0,0.0
1478263795.3,286046922.8,N,0.0,0.0
1478263815.1,286046921.6,N,0.0,0.0
1478263835.9,286046921.7,N,0.0,0.0
1478263855.7,286046921.5,N,0.0,0.0
1478263875.5,286046922.4,N,0.0,0.0
1478263895.4,286046922.4,N,0.0,0.0
1478263915.2,286046922.4,N,0.0,0.0
1478263935.0,286046921.7,N,0.0,0.0
1478263935.9,286046921.7,N,0.0,0.0
1478263955.8,286046921.7,N,0.0,0.0
1478263975.6,286046920.3,N,0.0,0.0
1478263995.4,286046919.9,N,0.0,0.0
1478264015.3,286046920.4,N,0.0,0.0
1478264035.1,286046921.8,N,0.0,0.0
1478264055.8,286046922.4,N,0.0,0.0
1478264075.7,286046922.8,N,0.0,0.0
1478264095.5,286046922.1,N,0.0,0.0
1478264115.3,286046921.6,N,0.0,0.0
1478264135.2,286046922.7,N,0.0,0.0
1478264155.0,286046922.8,N,0.0,0.0
1478264155.9,286046922.8,N,0.0,0.0
1478264175.8,286046920.4,N,0.0,0.0
1478264195.6,286046920.2,N,0.0,0.0
1478264215.4,286046922.8,N,0.0,0.0
1478264235.3,286046922.0,N,0.0,0.0
1478264255.1,286046922.0,N,0.0,0.0
1478264256.0,286046922.0,N,0.0,0.0
1478264275.8,286046923.9,N,0.0,0.0
1478264295.7,286046923.2,N,0.0,0.0
1478264315.5,286046924.4,N,0.0,0.0
1478264335.3,286046922.6,N,0.0,0.0
1478264355.2,286046921.9,N,0.0,0.0
1478264375.0,286046919.7,N,0.0,0.0
1478264375.9,286046919.7,N,0.0,0.0
1478264395.7,286046924.4,N,0.0,0.0
